Simultaneous Nadir Overpasses (SNOs) Predictions

Prediction of SNOs over PacNW region [( 10.00, 139.50) to ( 22.70, 165.60)] between AQUA and NPP Satellites:

Table of predicted SNOs over PacNW region for the next 30.0 days since TLE Epoch: 11/4/2022
Index Date (AQUA) Time (AQUA) AQUA Lat,Lon Date (NPP) Time (NPP) NPP Lat,Lon Distance(km) Time Diff (sec)
1 11/05/2022 03:56:55 22.70, 142.74 11/05/2022 03:53:27 22.06, 139.53 337.58 208
2 11/13/2022 03:04:28 22.68, 155.91 11/13/2022 03:02:35 21.96, 152.28 381.92 113
3 11/21/2022 03:48:23 14.19, 146.35 11/21/2022 03:50:44 13.15, 141.74 511.06 141
4 11/23/2022 15:49:13 12.36, 150.06 11/23/2022 15:46:22 13.00, 146.91 349.40 171
5 12/01/2022 14:54:38 18.78, 164.77 12/01/2022 14:53:39 19.49, 161.19 384.39 59
6 12/01/2022 16:32:26 22.60, 140.95 12/01/2022 16:34:00 23.53, 136.81 435.47 94
